[[{"header":{"parameterUnit":"m.s-1","parameterCategory":1,"la1":30.2992,"la2":30.254,"lo1":-89.0895,"lo2":-89.0443,"dy":0.0025,"dx":0.0025,"nx":19,"ny":19,"refTime":"2026-03-29T21:00:00:Z","depth":0,"parameterNumber":2,"parameterNumberName":"U-component_of_WINDS"},"data":[0,0,0,-4.0807,-4.081,-4.0962,-4.0962,-4.1158,-4.116,0,0,0,0,0,0,0,0,0,0,0,-4.0764,-4.0766,-4.0807,-4.0811,-4.0961,-4.0962,-4.1157,-4.116,0,0,0,0,0,0,0,0,0,0,0,-4.0764,-4.0765,-4.0767,-4.0811,-4.0961,-4.0962,-4.1157,-4.1042,0,0,0,0,0,0,0,0,0,0,-4.0895,-4.0857,-4.0765,-4.0767,-4.0812,-4.0961,-4.0962,-4.1036,-4.1049,-4.1091,0,-4.1128,0,-4.1147,-4.1173,-4.1174,0,0,0,-4.0809,-4.0847,-4.0886,-4.0767,-4.0814,-4.0961,-4.0893,-4.1044,-4.1058,-4.1108,-4.1131,-4.1138,-4.115,-4.1174,-4.1175,-4.142,-4.1421,0,0,-4.0801,-4.0792,-4.0876,-4.0895,-4.0873,-4.0888,-4.0898,-4.1052,-4.1077,-4.1132,-4.1143,-4.1154,-4.1175,-4.1177,-4.1419,-4.142,0,0,0,-4.0778,-4.0787,-4.0822,-4.0887,-4.0914,-4.0893,-4.0903,-4.107,-4.1082,-4.1145,-4.1156,-4.1177,-4.1179,-4.1417,-4.1419,-4.147,0,0,0,-4.0773,-4.0773,-4.0818,-4.0815,-4.0912,-4.0994,-4.0918,-4.1072,-4.1089,-4.1155,-4.1177,-4.1181,-4.1416,-4.1418,-4.1466,-4.1495,0,0,0,-4.0754,-4.0771,-4.0794,-4.0814,-4.0879,-4.0992,-4.1013,-4.1076,-4.1096,-4.1174,-4.1182,-4.1415,-4.1418,-4.1462,-4.1489,-4.1556,0,0,0,-4.0731,-4.0837,-4.0794,-4.0918,-4.0877,-4.1023,-4.1012,-4.1121,-4.1194,-4.1178,-4.1416,-4.1419,-4.1461,-4.1485,-4.1552,-4.1609,-4.1633,0,0,-4.0861,-4.0853,-4.0926,-4.0892,-4.1043,-4.1001,-4.116,-4.1234,-4.1249,-4.1362,-4.1368,-4.1467,-4.1488,-4.1555,-4.1772,-4.1791,0,0,0,-4.0964,-4.1016,-4.1058,-4.1127,-4.1187,-4.124,-4.1291,-4.1319,-4.1415,-4.1306,-4.1511,-4.1524,-4.1563,-4.1591,-4.1607,-4.164,-4.1432,-4.1432,-4.1432,-4.1134,-4.1148,-4.127,-4.1302,-4.1369,-4.1421,-4.1476,-4.1522,-4.1516,-4.1565,-4.1597,-4.1728,-4.176,-4.1772,-4.1807,-4.1631,-4.1631,-4.1631,-4.1631,-4.1323,-4.1398,-4.139,-4.1504,-4.1518,-4.1614,-4.1668,-4.1661,-4.1752,-4.1704,-4.174,-4.1683,-4.1792,-4.1823,-4.1635,-4.1635,-4.1634,-4.1634,-4.1634,-4.1434,-4.1472,-4.1505,-4.1606,-4.1682,-4.1711,-4.1799,-4.181,-4.182,-4.1855,-4.1889,-4.1889,-4.1887,-4.1871,-4.1872,-4.1872,-4.1873,-4.1873,-4.1873,-4.1535,-4.157,-4.1643,-4.1716,-4.1761,-4.1822,-4.1876,-4.1921,-4.1973,-4.1973,-4.1974,-4.1962,-4.1801,-4.1759,-4.188,-4.1879,-4.1878,-4.1877,-4.1877,-4.1717,-4.1678,-4.179,-4.1836,-4.1922,-4.1996,-4.2009,-4.21,-4.2138,-4.2181,-4.2163,-4.2043,-4.2035,-4.2023,-4.1988,-4.2161,-4.2161,-4.2161,-4.2161,-4.1809,-4.1807,-4.1923,-4.1995,-4.2067,-4.209,-4.2216,-4.2259,-4.2298,-4.2322,-4.23,-4.2255,-4.2242,-4.2242,-4.2224,-4.2192,-4.2413,-4.2413,-4.2414,-4.1921,-4.1926,-4.2031,-4.2068,-4.2137,-4.2195,-4.2313,-4.2395,-4.2431,-4.2424,-4.2342,-4.2331,-4.2259,-4.2235,-4.2223,-4.2196,-4.2136,0,0]},{"header":{"parameterUnit":"m.s-1","parameterCategory":1,"la1":30.2992,"la2":30.254,"lo1":-89.0895,"lo2":-89.0443,"dy":0.0025,"dx":0.0025,"nx":19,"ny":19,"refTime":"2026-03-29T21:00:00:Z","depth":0,"parameterNumber":3,"parameterNumberName":"V-component_of_WINDS"},"data":[0,0,0,2.7641,2.7643,2.7748,2.7748,2.7879,2.788,0,0,0,0,0,0,0,0,0,0,0,2.7608,2.7609,2.764,2.7643,2.7748,2.7748,2.7879,2.788,0,0,0,0,0,0,0,0,0,0,0,2.7608,2.7609,2.761,2.7643,2.7748,2.7748,2.7879,2.78,0,0,0,0,0,0,0,0,0,0,2.7699,2.7669,2.7609,2.761,2.7644,2.7748,2.7748,2.7797,2.7805,2.7831,0,2.7854,0,2.7869,2.7889,2.789,0,0,0,2.7643,2.7661,2.7691,2.761,2.7645,2.7747,2.7701,2.7802,2.7811,2.7842,2.7856,2.7861,2.7872,2.789,2.7891,2.8039,2.804,0,0,2.7638,2.7626,2.7684,2.7697,2.7682,2.7697,2.7704,2.7808,2.7821,2.7856,2.7864,2.7874,2.7891,2.7892,2.8039,2.8039,0,0,0,2.7621,2.7622,2.7649,2.7692,2.7711,2.77,2.7708,2.7816,2.7826,2.7865,2.7875,2.7891,2.7893,2.8038,2.8039,2.8062,0,0,0,2.7617,2.7612,2.7647,2.7641,2.7709,2.7765,2.7714,2.7819,2.7831,2.7875,2.7892,2.7894,2.8037,2.8038,2.806,2.8075,0,0,0,2.7602,2.7611,2.7626,2.764,2.7685,2.7764,2.778,2.7822,2.7837,2.789,2.7895,2.8037,2.8038,2.8058,2.8071,2.8111,0,0,0,2.7582,2.7643,2.7626,2.7698,2.7684,2.7778,2.7779,2.7849,2.7897,2.7892,2.8037,2.8039,2.8057,2.8069,2.8109,2.8143,2.8156,0,0,2.7653,2.7651,2.7695,2.7683,2.7777,2.7763,2.786,2.7914,2.7928,2.8001,2.8005,2.8061,2.8071,2.8111,2.8233,2.8243,0,0,0,2.7714,2.7745,2.7773,2.7819,2.7862,2.7901,2.7941,2.7961,2.8024,2.7964,2.8086,2.8093,2.8116,2.8133,2.8142,2.8163,2.8046,2.8046,2.8046,2.7797,2.7815,2.7889,2.7919,2.7963,2.8006,2.8043,2.8077,2.808,2.8109,2.813,2.8203,2.8222,2.8228,2.825,2.815,2.815,2.815,2.815,2.7903,2.7951,2.7956,2.8029,2.8047,2.8108,2.8152,2.8152,2.8212,2.8187,2.8209,2.818,2.8239,2.8259,2.8152,2.8151,2.8151,2.8151,2.8151,2.796,2.7986,2.8011,2.808,2.8132,2.816,2.8219,2.8232,2.8245,2.8267,2.8292,2.8291,2.8293,2.8278,2.8278,2.8278,2.8279,2.8279,2.8279,2.8008,2.8036,2.8084,2.8137,2.817,2.8214,2.8258,2.829,2.8329,2.8335,2.8335,2.8335,2.8242,2.8218,2.8283,2.8282,2.8282,2.8281,2.8281,2.8109,2.8089,2.8163,2.8196,2.826,2.8312,2.8329,2.8394,2.8422,2.8451,2.8447,2.8376,2.8375,2.8368,2.8348,2.8443,2.8443,2.8443,2.8443,2.8157,2.8158,2.8238,2.829,2.8342,2.8366,2.8449,2.8485,2.8519,2.8538,2.8526,2.8502,2.8494,2.8497,2.8488,2.847,2.8593,2.8593,2.8593,2.822,2.8228,2.8296,2.833,2.8382,2.8427,2.8506,2.8565,2.8599,2.86,2.8553,2.8547,2.8507,2.8493,2.8492,2.8476,2.8444,0,0]}]]